CW6747 Weather Reports


Display with metric or nautical units.
time (UTC)temp
F
wind
direction
speed
MPH
gust
MPH
rain 1hr
in
rain 24hr
in
rain mn
in
humidity
%
barometer
mb
20260508021533 51 85 19.0 31.0 0.00 0.00 0.00 57 1011.4
20260508020029 52 0 0.0 2.0 0.00 0.00 0.00 52 1009.7
20260508014529 52 0 0.0 2.0 0.00 0.00 0.00 50 1009.6
20260508013028 53 55 1.0 4.0 0.00 0.00 0.00 49 1009.4
20260508011530 53 65 2.0 6.0 0.00 0.00 0.00 49 1009.1
20260508010028 54 57 2.0 5.0 0.00 0.00 0.00 50 1008.9
20260508004528 54 95 2.0 4.0 0.00 0.00 0.00 50 1008.7
20260508003030 54 0 1.0 3.0 0.00 0.00 0.00 49 1008.5
20260508001529 55 39 1.0 4.0 0.00 0.00 0.00 47 1008.4
20260508000027 56 35 1.0 8.0 0.00 0.00 0.00 45 1008.2
20260507234535 56 44 4.0 9.0 0.00 0.00 0.00 43 1008.1
20260507233029 56 95 5.0 14.0 0.00 0.00 0.00 42 1008.0
20260507231530 56 70 4.0 9.0 0.00 0.00 0.00 42 1007.7
20260507230029 57 101 6.0 16.0 0.00 0.00 0.00 41 1007.7
20260507224530 57 81 8.0 15.0 0.00 0.00 0.00 41 1007.6
20260507223029 57 54 7.0 13.0 0.00 0.00 0.00 42 1007.5
20260507221533 57 96 5.0 12.0 0.00 0.00 0.00 41 1007.6
20260507220029 57 69 6.0 12.0 0.00 0.00 0.00 41 1007.6
20260507214530 57 63 6.0 14.0 0.00 0.00 0.00 42 1007.6
20260507213030 58 51 5.0 11.0 0.00 0.00 0.00 41 1007.6
20260507211528 57 70 6.0 14.0 0.00 0.00 0.00 41 1007.6
20260507210029 57 118 5.0 12.0 0.00 0.00 0.00 42 1007.5
20260507204527 57 92 6.0 12.0 0.00 0.00 0.00 41 1007.6
20260507203032 58 88 6.0 15.0 0.00 0.00 0.00 40 1007.7
20260507201536 58 36 8.0 14.0 0.00 0.00 0.00 40 1007.7
20260507200029 59 9 8.0 16.0 0.00 0.00 0.00 39 1007.8
20260507194527 58 92 6.0 13.0 0.00 0.00 0.00 41 1007.8
20260507193032 58 64 6.0 17.0 0.00 0.00 0.00 41 1008.1
20260507191534 59 37 10.0 16.0 0.00 0.00 0.00 37 1008.1
20260507190030 59 55 7.0 18.0 0.00 0.00 0.00 45 1008.2
20260507184528 59 63 8.0 12.0 0.00 0.00 0.00 41 1008.5
20260507183036 59 59 5.0 14.0 0.00 0.00 0.00 48 1008.5
20260507181529 57 116 6.0 12.0 0.00 0.00 0.00 42 1008.7
20260507180027 59 67 9.0 15.0 0.00 0.00 0.00 44 1008.9
20260507174533 59 99 9.0 16.0 0.00 0.00 0.00 40 1009.1
20260507173033 59 63 10.0 18.0 0.00 0.00 0.00 40 1009.3
20260507171531 57 72 4.0 12.0 0.00 0.00 0.00 41 1009.4
20260507170028 57 117 8.0 16.0 0.00 0.00 0.00 43 1009.5
20260507164526 57 113 5.0 12.0 0.00 0.00 0.00 45 1009.7
20260507163031 56 128 5.0 14.0 0.00 0.00 0.00 42 1009.7
20260507161530 55 100 2.0 11.0 0.00 0.00 0.00 44 1010.0
20260507160034 55 96 4.0 9.0 0.00 0.00 0.00 50 1010.2
20260507154528 55 62 5.0 13.0 0.00 0.01 0.00 44 1010.4
20260507153027 54 109 5.0 13.0 0.00 0.01 0.00 47 1010.7
20260507151528 53 40 5.0 14.0 0.00 0.01 0.00 53 1011.1
20260507150030 53 102 7.0 20.0 0.00 0.01 0.00 50 1011.4
20260507144530 52 112 1.0 7.0 0.00 0.02 0.00 56 1011.5
20260507143048 51 32 2.0 12.0 0.00 0.02 0.00 59 1011.7
20260507141538 51 86 4.0 8.0 0.00 0.02 0.00 54 1012.0
20260507140030 50 58 2.0 6.0 0.00 0.02 0.00 57 1012.0
20260507134528 49 343 3.0 8.0 0.00 0.05 0.00 59 1012.0
20260507133028 48 26 2.0 8.0 0.00 0.05 0.00 63 1012.1
20260507131527 47 47 3.0 7.0 0.00 0.05 0.00 63 1012.2
20260507130038 46 14 2.0 6.0 0.00 0.05 0.00 63 1012.3
20260507124529 46 360 1.0 5.0 0.00 0.10 0.00 65 1012.4
20260507123026 44 5 2.0 5.0 0.00 0.10 0.00 67 1012.3
20260507121531 43 351 2.0 5.0 0.00 0.10 0.00 68 1012.4
20260507120028 43 30 2.0 4.0 0.00 0.10 0.00 68 1012.2
20260507114530 42 58 2.0 5.0 0.00 0.14 0.00 69 1012.1
20260507113029 41 36 1.0 4.0 0.00 0.14 0.00 72 1012.0
20260507111530 39 0 0.0 1.0 0.00 0.14 0.00 74 1011.8
20260507110027 38 0 0.0 2.0 0.00 0.14 0.00 76 1011.7
20260507104530 38 300 0.0 2.0 0.00 0.16 0.00 76 1011.6
20260507103029 38 0 0.0 0.0 0.00 0.16 0.00 76 1011.6
20260507101530 39 0 0.0 0.0 0.00 0.16 0.00 75 1011.5
20260507100035 39 0 0.0 0.0 0.00 0.16 0.00 74 1011.5
20260507094526 40 0 0.0 0.0 0.00 0.16 0.00 74 1011.4
20260507093028 40 0 0.0 1.0 0.00 0.16 0.00 72 1011.2
20260507091534 41 0 0.0 2.0 0.00 0.16 0.00 71 1011.4
20260507090027 42 0 0.0 0.0 0.00 0.16 0.00 69 1011.3
20260507084531 43 0 0.0 1.0 0.00 0.16 0.00 68 1011.3
20260507083030 44 52 0.0 2.0 0.00 0.16 0.00 65 1011.4
20260507081529 44 57 1.0 3.0 0.00 0.16 0.00 63 1011.4
20260507080029 45 71 1.0 6.0 0.00 0.16 0.00 64 1011.4
20260507074530 45 73 1.0 4.0 0.00 0.16 0.00 64 1011.4
20260507073032 45 71 1.0 3.0 0.00 0.16 0.00 64 1011.5
20260507071533 45 42 0.0 2.0 0.00 0.16 0.00 66 1011.3
20260507070034 45 70 1.0 4.0 0.00 0.16 0.00 65 1011.4
20260507064544 45 0 1.0 2.0 0.00 0.16 0.00 65 1011.5
20260507063034 46 0 0.0 4.0 0.00 0.16 0.00 63 1011.4
20260507061531 46 56 2.0 5.0 0.00 0.16 0.00 61 1011.6
20260507060028 46 69 0.0 5.0 0.00 0.16 0.00 61 1011.8
20260507054530 47 34 3.0 8.0 0.00 0.16 0.00 60 1011.7
20260507053028 47 64 3.0 9.0 0.00 0.16 0.00 61 1011.6
20260507051528 47 53 2.0 5.0 0.00 0.16 0.00 68 1011.7
20260507050039 47 0 1.0 3.0 0.00 0.16 0.00 64 1011.7
20260507044532 47 0 0.0 0.0 0.00 0.16 0.00 63 1011.7
20260507043030 48 0 0.0 5.0 0.00 0.16 0.00 58 1011.9
20260507041530 48 105 1.0 7.0 0.00 0.16 0.00 56 1011.7
20260507040029 48 138 0.0 6.0 0.00 0.16 0.00 58 1011.6
20260507034529 48 67 2.0 5.0 0.00 0.16 0.16 58 1011.6
20260507033030 49 65 1.0 11.0 0.00 0.16 0.16 56 1011.6
20260507031533 49 86 3.0 13.0 0.00 0.16 0.16 54 1011.5
20260507030030 49 109 2.0 12.0 0.00 0.16 0.16 63 1011.2
20260507024528 49 113 5.0 14.0 0.00 0.16 0.16 77 1011.1
20260507023030 49 0 0.0 1.0 0.00 0.16 0.16 79 1010.8